This is the latest recevied weather packets stored in our database for station/object KD0SBN. If no packets are shown the sender has not sent any weather packets the latest 10 day(s).
| Time | Temp. | Humidity | Pressure | Rain* | Wind** | Luminosity | Snow |
|---|---|---|---|---|---|---|---|
| 1777407105 | 17.78° C | 38% | 1014.4 hPa | 0 mm | - | - | - |
| 1777406801 | 17.78° C | 37% | 1014.2 hPa | 0 mm | - | - | - |
| 1777406496 | 17.78° C | 38% | 1014.3 hPa | 0 mm | - | - | - |
| 1777406192 | 17.22° C | 38% | 1014.4 hPa | 0 mm | - | - | - |
| 1777405891 | 16.67° C | 38% | 1014.4 hPa | 0 mm | - | - | - |
| 1777405588 | 17.22° C | 39% | 1014.5 hPa | 0 mm | - | - | - |
| 1777405286 | 16.67° C | 39% | 1014.3 hPa | 0 mm | - | - | - |
| 1777404985 | 16.11° C | 41% | 1014.3 hPa | 0 mm | - | - | - |
| 1777404680 | 16.11° C | 41% | 1014.3 hPa | 0 mm | - | - | - |
| 1777404377 | 16.11° C | 41% | 1014.7 hPa | 0 mm | - | - | - |
| 1777404074 | 16.11° C | 41% | 1014.8 hPa | 0 mm | - | - | - |
| 1777403769 | 15.56° C | 43% | 1014.7 hPa | 0 mm | - | - | - |
| 1777403468 | 15.56° C | 43% | 1014.7 hPa | 0 mm | - | - | - |
| 1777403168 | 15.56° C | 43% | 1014.8 hPa | 0 mm | - | - | - |
| 1777402863 | 15° C | 44% | 1014.9 hPa | 0 mm | - | - | - |
| 1777402560 | 14.44° C | 46% | 1014.9 hPa | 0 mm | - | - | - |
| 1777402257 | 15° C | 45% | 1015 hPa | 0 mm | - | - | - |
| 1777401952 | 14.44° C | 46% | 1015 hPa | 0 mm | - | - | - |
| 1777401651 | 15° C | 44% | 1015.1 hPa | 0 mm | - | - | - |
| 1777401349 | 14.44° C | 46% | 1015 hPa | 0 mm | - | - | - |
| 1777401044 | 13.89° C | 47% | 1015.5 hPa | 0 mm | - | - | - |
| 1777400740 | 14.44° C | 46% | 1015.4 hPa | 0 mm | - | - | - |
| 1777400438 | 13.89° C | 48% | 1015.4 hPa | 0 mm | - | - | - |
| 1777400138 | 13.33° C | 48% | 1015.4 hPa | 0 mm | - | - | - |
| 1777399836 | 13.89° C | 47% | 1015.7 hPa | 0 mm | - | - | - |
* Rain latest hour (hover to see other rain measurements)
** Current wind speed in m/s (hover to see current wind gust speed)